Washington, PA

4:14 AM EDT on April 23, 2017 (GMT -0400)
Washington County

Weather History for KAFJ - May, 2013

Change the Weather History Date:

Friday, May 24, 2013

  Actual Average Record
Temperature  
Mean Temperature 42 °F -  
Max Temperature 48 °F 68 °F 84 °F (2007)
Min Temperature 35 °F 47 °F 33 °F (2006)
Degree Days  
Heating Degree Days 22    
Moisture  
Dew Point 36 °F    
Average Humidity 74    
Maximum Humidity 93    
Minimum Humidity 57    
Precipitation  
Precipitation 0.00 in - - ()
Sea Level Pressure  
Sea Level Pressure 30.16 in    
Wind  
Wind Speed 10 mph (West)    
Max Wind Speed 18 mph    
Max Gust Speed 24 mph    
Visibility 10 miles    
Events      
Averages and records for this station are not official NWS values.
T = Trace of Precipitation, MM = Missing Value Source: NWS Daily Summary

Daily Weather History Graph

Daily Weather History Graph

Search for Another Location

Airport or City:

Trip Planner

Search our weather history database for the weather conditions in past years. The results will help you decide how hot, cold, wet, or windy it might be!

Date:

Astronomy

May. 24, 2013 Rise Set
Actual Time 5:58 AM EDT 8:38 PM EDT
Civil Twilight 5:26 AM EDT 9:10 PM EDT
Nautical Twilight 4:47 AM EDT 9:49 PM EDT
Astronomical Twilight 4:02 AM EDT 10:34 PM EDT
Moon 8:18 PM EDT (5/24) 5:29 AM EDT (5/24)
Length of Visible Light 15h 43m
Length of Day
14h 40m
Full, 100% of the Moon is Illuminated
May 24
Full
May 25
Full
May 31
Last Quarter
Jun 8
New
Jun 16
First Quarter

Hourly Weather History & Observations

Time (EDT) Temp. Windchill Dew Point Humidity Pressure Visibility Wind Dir Wind Speed Gust Speed Precip Events Conditions
12:15 AM 48.2 °F - 44.6 °F 87% 29.95 in 10.0 mi NNW 10.4 mph 21.9 mph N/A   Overcast
12:35 AM 48.2 °F - 44.6 °F 87% 29.95 in 10.0 mi WNW 9.2 mph - N/A   Overcast
12:55 AM 46.4 °F 41.5 °F 42.8 °F 87% 29.96 in 10.0 mi West 10.4 mph 18.4 mph N/A   Overcast
1:15 AM 46.4 °F 41.1 °F 42.8 °F 87% 29.96 in 10.0 mi WNW 11.5 mph 21.9 mph N/A   Overcast
1:35 AM 46.4 °F 40.7 °F 42.8 °F 87% 29.96 in 10.0 mi WSW 12.7 mph 20.7 mph N/A   Overcast
1:55 AM 46.4 °F 42.4 °F 41.0 °F 81% 29.98 in 10.0 mi WSW 8.1 mph 19.6 mph N/A   Overcast
2:15 AM 44.6 °F 38.4 °F 41.0 °F 87% 29.98 in 10.0 mi NW 12.7 mph 20.7 mph N/A   Overcast
2:35 AM 44.6 °F 40.2 °F 39.2 °F 81% 29.98 in 10.0 mi NNW 8.1 mph 19.6 mph N/A   Overcast
2:55 AM 44.6 °F 38.1 °F 39.2 °F 81% 29.99 in 10.0 mi NNW 13.8 mph 19.6 mph N/A   Overcast
3:15 AM 44.6 °F 40.2 °F 39.2 °F 81% 30.00 in 10.0 mi NW 8.1 mph - N/A   Overcast
3:35 AM 44.6 °F 39.7 °F 41.0 °F 87% 30.00 in 10.0 mi WNW 9.2 mph - N/A   Overcast
3:55 AM 44.6 °F 39.2 °F 41.0 °F 87% 30.01 in 10.0 mi West 10.4 mph - N/A   Overcast
4:15 AM 44.6 °F 39.2 °F 41.0 °F 87% 30.02 in 8.0 mi West 10.4 mph - N/A   Overcast
4:35 AM 44.6 °F 42.2 °F 41.0 °F 87% 30.03 in 8.0 mi West 4.6 mph - N/A   Overcast
4:55 AM 42.8 °F 38.6 °F 41.0 °F 93% 30.03 in 7.0 mi WSW 6.9 mph - N/A   Overcast
5:15 AM 42.8 °F 36.6 °F 39.2 °F 87% 30.04 in 8.0 mi WSW 11.5 mph 18.4 mph N/A   Overcast
5:35 AM 42.8 °F 38.0 °F 39.2 °F 87% 30.04 in 10.0 mi West 8.1 mph - N/A   Overcast
5:55 AM 42.8 °F 36.6 °F 39.2 °F 87% 30.05 in 5.0 mi West 11.5 mph - N/A   Overcast
6:15 AM 42.8 °F 37.5 °F 39.2 °F 87% 30.06 in 8.0 mi WSW 9.2 mph 16.1 mph N/A   Overcast
6:35 AM 42.8 °F 37.5 °F 39.2 °F 87% 30.08 in 7.0 mi West 9.2 mph 16.1 mph N/A   Overcast
6:55 AM 42.8 °F 38.6 °F 39.2 °F 87% 30.09 in 8.0 mi West 6.9 mph - N/A   Overcast
7:15 AM 42.8 °F 37.0 °F 39.2 °F 87% 30.10 in 10.0 mi West 10.4 mph 18.4 mph N/A   Overcast
7:35 AM 42.8 °F 37.5 °F 39.2 °F 87% 30.11 in 10.0 mi West 9.2 mph 16.1 mph N/A   Overcast
7:55 AM 42.8 °F 37.0 °F 37.4 °F 81% 30.11 in 10.0 mi West 10.4 mph 17.3 mph N/A   Overcast
8:15 AM 42.8 °F 37.0 °F 37.4 °F 81% 30.12 in 10.0 mi West 10.4 mph 16.1 mph N/A   Overcast
8:35 AM 42.8 °F 36.6 °F 37.4 °F 81% 30.14 in 10.0 mi West 11.5 mph 17.3 mph N/A   Overcast
8:55 AM 42.8 °F 37.5 °F 37.4 °F 81% 30.15 in 10.0 mi West 9.2 mph - N/A   Overcast
9:15 AM 42.8 °F 38.0 °F 37.4 °F 81% 30.16 in 10.0 mi WNW 8.1 mph 19.6 mph N/A   Overcast
9:35 AM 42.8 °F 35.8 °F 37.4 °F 81% 30.16 in 10.0 mi NW 13.8 mph 19.6 mph N/A   Overcast
9:55 AM 42.8 °F 36.6 °F 37.4 °F 81% 30.16 in 10.0 mi WNW 11.5 mph 19.6 mph N/A   Overcast
10:15 AM 42.8 °F 36.6 °F 37.4 °F 81% 30.17 in 10.0 mi West 11.5 mph 17.3 mph N/A   Overcast
10:35 AM 42.8 °F 37.0 °F 37.4 °F 81% 30.18 in 10.0 mi WNW 10.4 mph - N/A   Overcast
10:55 AM 44.6 °F 39.7 °F 37.4 °F 76% 30.18 in 10.0 mi WNW 9.2 mph - N/A   Overcast
11:15 AM 44.6 °F 39.2 °F 35.6 °F 71% 30.19 in 10.0 mi WNW 10.4 mph - N/A   Overcast
11:35 AM 46.4 °F 41.1 °F 35.6 °F 66% 30.19 in 10.0 mi NW 11.5 mph 17.3 mph N/A   Overcast
11:55 AM 46.4 °F 41.1 °F 37.4 °F 71% 30.20 in 10.0 mi West 11.5 mph - N/A   Overcast
12:15 PM 46.4 °F 42.4 °F 35.6 °F 66% 30.20 in 10.0 mi West 8.1 mph 17.3 mph N/A   Overcast
12:35 PM 46.4 °F 39.2 °F 35.6 °F 66% 30.21 in 10.0 mi WNW 18.4 mph 24.2 mph N/A   Overcast
12:55 PM 46.4 °F 40.7 °F 33.8 °F 62% 30.22 in 10.0 mi WNW 12.7 mph 18.4 mph N/A   Overcast
1:15 PM 48.2 °F - 33.8 °F 58% 30.22 in 10.0 mi NW 15.0 mph 24.2 mph N/A   Overcast
1:35 PM 48.2 °F - 35.6 °F 62% 30.22 in 10.0 mi West 11.5 mph 19.6 mph N/A   Overcast
1:55 PM 46.4 °F 40.4 °F 33.8 °F 62% 30.23 in 10.0 mi WSW 13.8 mph 20.7 mph N/A   Overcast
2:15 PM 48.2 °F - 33.8 °F 58% 30.23 in 10.0 mi WSW 11.5 mph 16.1 mph N/A   Overcast
2:35 PM 48.2 °F - 33.8 °F 58% 30.23 in 10.0 mi West 9.2 mph 19.6 mph N/A   Overcast
2:55 PM 48.2 °F - 33.8 °F 58% 30.23 in 10.0 mi WSW 10.4 mph 20.7 mph N/A   Overcast
3:15 PM 48.2 °F - 33.8 °F 58% 30.23 in 10.0 mi SW 10.4 mph 18.4 mph N/A   Overcast
3:35 PM 48.2 °F - 33.8 °F 58% 30.24 in 10.0 mi SW 11.5 mph 18.4 mph N/A   Overcast
3:55 PM 48.2 °F - 33.8 °F 58% 30.24 in 10.0 mi SW 9.2 mph - N/A   Overcast
4:15 PM 48.2 °F - 33.8 °F 58% 30.24 in 10.0 mi SW 9.2 mph 18.4 mph N/A   Overcast
4:35 PM 48.2 °F - 33.8 °F 58% 30.24 in 10.0 mi SW 8.1 mph - N/A   Overcast
4:55 PM 46.4 °F 40.7 °F 33.8 °F 62% 30.25 in 10.0 mi SSW 12.7 mph 19.6 mph N/A   Overcast
5:15 PM 46.4 °F 40.1 °F 35.6 °F 66% 30.26 in 10.0 mi SW 15.0 mph 19.6 mph N/A   Overcast
5:35 PM 46.4 °F 40.4 °F 33.8 °F 62% 30.26 in 10.0 mi SSW 13.8 mph 19.6 mph N/A   Overcast
5:55 PM 46.4 °F 41.1 °F 32.0 °F 57% 30.27 in 10.0 mi SW 11.5 mph 20.7 mph N/A   Overcast
6:15 PM 44.6 °F 39.7 °F 32.0 °F 61% 30.27 in 10.0 mi SW 9.2 mph 18.4 mph N/A   Overcast
6:35 PM 44.6 °F 40.7 °F 32.0 °F 61% 30.27 in 10.0 mi SW 6.9 mph 17.3 mph N/A   Overcast
6:55 PM 44.6 °F 39.2 °F 32.0 °F 61% 30.27 in 10.0 mi WSW 10.4 mph 18.4 mph N/A   Overcast
7:15 PM 44.6 °F 40.7 °F 32.0 °F 61% 30.28 in 10.0 mi SSW 6.9 mph - N/A   Overcast
7:35 PM 44.6 °F 39.2 °F 30.2 °F 57% 30.28 in 10.0 mi SW 10.4 mph 17.3 mph N/A   Overcast
7:55 PM 44.6 °F 39.7 °F 32.0 °F 61% 30.29 in 10.0 mi SW 9.2 mph - N/A   Overcast
8:15 PM 44.6 °F 39.7 °F 30.2 °F 57% 30.29 in 10.0 mi WSW 9.2 mph - N/A   Overcast
8:35 PM 42.8 °F 39.3 °F 30.2 °F 61% 30.29 in 10.0 mi SW 5.8 mph - N/A   Overcast
8:55 PM 42.8 °F 40.1 °F 30.2 °F 61% 30.28 in 10.0 mi SW 4.6 mph - N/A   Overcast
9:15 PM 42.8 °F 38.0 °F 30.2 °F 61% 30.28 in 10.0 mi WSW 8.1 mph - N/A   Overcast
9:35 PM 42.8 °F 39.3 °F 30.2 °F 61% 30.29 in 10.0 mi SW 5.8 mph - N/A   Overcast
9:55 PM 41.0 °F 37.1 °F 30.2 °F 65% 30.29 in 10.0 mi WSW 5.8 mph - N/A   Mostly Cloudy
10:15 PM 39.2 °F 37.0 °F 30.2 °F 70% 30.29 in 10.0 mi West 3.5 mph - N/A   Mostly Cloudy
10:35 PM 39.2 °F - 30.2 °F 70% 30.29 in 10.0 mi Calm Calm - N/A   Overcast
10:55 PM 39.2 °F - 32.0 °F 75% 30.29 in 10.0 mi Calm Calm - N/A   Overcast
11:15 PM 37.4 °F - 33.8 °F 87% 30.30 in 10.0 mi Calm Calm - N/A   Overcast
11:35 PM 37.4 °F - 33.8 °F 87% 30.30 in 10.0 mi Calm Calm - N/A   Mostly Cloudy
11:55 PM 35.6 °F - 33.8 °F 93% 30.30 in 10.0 mi Calm Calm - N/A   Partly Cloudy